GFSGBSN_prec_radar_192.txt.gz
Reflectivity
-11 -20 10 5 32 30 18 15 26 12 -15 -20 -20 -20 -20 -20 -20 -20 -20 -20 -20 -20 -20 -20 -20 -20 -20 -20 -20 -20 -20 -20 -20 -20 -20 -20 -20 -20 -20 -20 -20 -20 -20 -20 -20 -20 -20
12 -20 -20 13 10 35 29 18 16 23 15 -8 -20 -20 -20 -20 -19 -18 -20 -20 -20 -20 -20 -20 -20 -20 -20 -20 -20 -20 -20 -20 -20 -20 -20 -20 -20 -20 -20 -20 -20 -20 -20 -20 -20 -20 -20
8 -1 -20 -20 17 -3 36 35 25 26 31 17 -18 0 -20 -20 -20 -20 -20 -20 -20 -20 -20 -20 -20 -20 -20 -20 -20 -20 -20 -20 -20 -20 -20 -20 -20 -20 -20 -20 -20 -20 -20 -20 -20 -20 -20
6 -20 2 2 0 16 21 37 40 23 26 23 18 -3 -11 -20 -20 -20 -20 -4 -20 -20 -20 -20 -20 -20 -20 -20 -20 -20 -20 -20 -20 -11 -8 -20 -20 -20 -20 -20 -20 -20 -20 -20 -20 -20 -20
-20 -12 -17 11 -12 -15 12 25 37 38 29 24 26 17 -6 10 4 -7 -20 -20 -20 -20 -19 -20 -20 -20 -20 -20 -20 -20 -20 -20 -20 -20 -20 -20 -20 -20 -20 -20 -20 -20 -20 -20 -20 -20 -20
-19 1 -4 -20 -20 -20 -6 8 30 36 31 33 22 25 15 -20 6 12 -4 -20 2 -16 -2 -20 -20 -20 -20 -20 -20 -20 -20 -20 -16 -15 -20 -20 -20 -20 -20 -20 -20 -20 -20 -20 -20 -20 -20
18 10 3 -18 -9 -20 -20 12 16 33 34 32 27 27 26 27 -6 10 8 13 9 -8 -16 -20 -20 -20 -20 -20 -20 -16 -16 -2 -20 -20 -20 -20 -20 -20 -20 -20 -20 -20 -20 -20 -20 -20 -20
16 -4 16 10 1 -20 -20 -12 13 23 28 33 39 31 29 28 18 -4 -13 -8 -20 -20 -13 8 7 -10 -20 -20 -20 -6 7 -10 -20 -20 -20 -20 -20 -20 -20 -20 -20 -20 -20 -20 -20 -20 -20
-20 -18 19 13 9 1 -2 0 10 19 24 19 36 36 36 27 34 8 -20 -15 -10 4 -20 -20 -1 0 -15 -20 -20 -20 -20 -17 -15 -20 -20 -20 -20 -20 -20 -20 -20 -20 -20 -20 -20 -20 -20
-4 -3 -20 -17 -1 6 1 -17 -19 14 26 32 30 30 38 42 38 34 5 -9 6 -20 6 -15 -19 -20 -20 -20 -20 -20 5 -17 1 -18 -20 -20 -20 -20 -20 -20 -20 -20 -20 -20 -20 -20 -20
10 -4 -19 -20 -20 -11 -20 -20 -20 -2 27 27 25 25 35 40 40 40 22 -20 21 3 -12 -20 -20 -20 -20 -20 -20 -12 9 -20 -8 3 -3 -20 -20 -20 -20 -20 -11 -20 -8 -20 -20 -20 -20
6 -20 -3 -15 1 -14 -20 -20 -20 -20 1 26 23 21 30 36 40 35 21 21 15 29 21 -4 -19 -20 -20 -20 -20 -6 -17 -7 -6 -15 -17 -20 -20 1 -4 -20 -20 -20 -20 -20 -20 -20 -20
-10 -20 -20 -20 -11 6 -20 -20 -19 -20 -18 4 26 33 29 36 35 35 39 43 37 29 16 5 -2 -17 -20 -20 7 2 6 -14 -20 -20 -20 -20 -20 -4 3 -20 -20 -20 -20 -20 -20 -20 -20
-20 -20 -20 -20 -8 -1 -0 -15 -20 -20 -20 -11 27 31 30 36 35 36 41 39 33 40 10 -20 -20 -20 -20 -3 -3 4 11 -17 -20 -20 -20 -20 -13 -20 -18 -20 -20 -20 -20 -20 -20 -20 -20
19 15 13 -9 -20 -20 -9 -3 -16 4 -4 6 5 28 30 36 36 39 39 38 40 32 8 -20 -16 -20 -20 -20 -20 -20 -20 -20 -20 -20 -20 -20 -20 -20 -20 -20 -20 -20 -20 -20 -20 -20 -20
-20 -8 -8 -15 -9 -13 -1 2 3 1 5 11 14 21 31 27 37 40 38 40 38 21 -20 -20 -13 -20 -20 -20 -20 -20 -20 -20 -20 -20 -20 -13 -2 -20 -20 -20 -20 -20 -20 -19 -20 -20 -20
1 2 14 9 13 -3 8 6 0 10 14 18 16 21 16 22 38 39 39 39 38 18 0 -9 -20 -20 -20 -20 -20 -20 -20 -20 -20 -20 13 1 -5 -20 -20 -20 -20 -20 -20 17 3 -20 -20
8 9 11 -11 8 10 7 2 14 12 -11 17 20 30 22 19 38 42 41 38 31 21 -14 20 21 -2 -6 -19 -16 -20 -20 -20 -20 -3 -5 -9 17 5 -18 2 -6 -7 -7 4 11 -8 -20
9 5 -13 -4 3 15 13 19 13 23 13 25 8 7 10 22 38 39 39 36 33 28 16 11 30 15 2 24 26 12 9 24 -1 -20 -20 -19 20 23 30 23 -14 -18 5 10 7 -20 -20
-20 -6 15 7 25 32 29 20 20 23 29 23 8 9 25 31 25 38 36 31 24 28 11 8 17 18 4 23 34 28 18 15 -10 6 2 -3 -11 5 11 16 18 15 6 3 -12 -20 -20
16 2 8 19 33 34 30 27 8 9 27 23 29 23 26 32 30 39 33 22 9 14 25 15 7 20 26 25 36 29 -2 -20 -19 -20 -20 -20 -14 18 31 27 22 3 3 2 -17 -20 -20
16 15 7 25 33 29 31 21 15 9 11 27 33 26 37 -17 17 34 34 33 0 1 7 18 -6 8 17 14 18 25 9 -14 4 7 10 6 27 30 23 14 12 10 3 -12 -20 -20 -20
-12 4 6 26 30 18 29 29 21 -16 1 33 21 -7 5 2 -14 18 32 29 10 -20 -4 -19 -14 15 16 20 20 25 23 25 28 19 26 32 23 17 16 13 14 4 -20 -11 -20 -20 -20
11 13 3 20 32 26 35 38 30 17 -2 1 -12 -20 16 26 -20 1 21 -9 -11 -20 -10 -8 -15 -1 32 34 32 34 32 33 33 35 33 26 17 15 8 3 4 -16 -5 -11 -0 -20 -20
10 13 6 16 32 31 35 36 36 36 28 -17 -20 -8 -6 29 -8 -12 4 -9 -17 -4 12 6 20 26 36 28 31 28 28 28 31 26 23 12 12 11 9 -3 -16 -18 -20 -20 -20 -20 -20
4 13 -6 10 32 32 34 36 38 39 36 9 -11 -20 -20 15 26 -15 -10 -20 3 13 33 33 29 37 33 33 24 23 19 16 14 17 22 17 9 3 4 5 -13 -20 -20 -20 -20 -20 -20
-18 -16 -15 4 27 34 34 33 36 36 37 31 26 -0 -18 -0 19 -15 -5 3 9 27 33 39 40 39 33 24 21 19 17 16 12 10 10 10 9 -0 -5 -19 -20 -20 -20 -19 -20 -20 -20
-19 -20 -20 -20 10 27 33 33 33 31 33 37 38 31 25 26 34 22 4 27 32 27 31 33 25 26 26 16 14 15 13 10 5 -2 8 7 7 6 7 1 -4 -20 -20 -20 -20 -20 -20
-20 -20 -20 -20 -20 12 23 32 33 32 31 27 32 34 34 30 35 34 35 31 23 21 18 20 20 14 14 16 15 8 6 8 7 8 6 -12 -20 -20 -20 -20 -20 -20 -20 -20 -20 -20 -20

GFSGBSN_prec_radar_195.txt.gz
Reflectivity
-10 -20 3 5 -20 -12 5 19 23 24 20 18 -4 -14 -20 -20 -20 -20 -20 -20 -20 -20 -20 -20 -20 -20 -20 -20 -20 -20 -20 -20 -20 -20 -20 -20 -20 -20 -20 -20 -20 -20 -20 -20 -20 -20 -20
-10 -19 -20 -20 -20 -20 10 1 28 22 26 23 12 -2 3 -20 -20 -20 -20 -20 -20 -20 -20 -20 -20 -20 -20 -20 -20 -20 -20 -20 -20 -20 -20 -20 -20 -20 -20 -20 -20 -20 -20 -20 -20 -20 -20
2 -0 2 -14 -18 -20 -20 7 -5 19 28 34 31 27 6 -20 -2 -20 -20 -20 -20 -20 -20 -20 -20 -20 -20 -20 -20 -20 -20 -20 -20 -20 -20 -20 -20 -20 -20 -20 -20 -20 -20 -20 -20 -20 -20
6 -20 -20 1 -20 -19 -1 -20 -20 9 19 33 33 31 24 17 -20 -12 -20 -20 -20 -20 -20 -20 -20 -20 -20 -20 -20 -20 -20 -20 -20 -20 -20 -20 -20 -20 -20 -20 -20 -20 -20 -20 -20 -20 -20
-11 -14 8 9 3 -5 -14 -18 -20 -20 16 26 33 38 24 13 13 -14 -20 -20 -20 -20 -20 -20 -20 -20 -20 -20 -20 -20 -20 -20 -20 -20 -20 -20 -20 -19 -20 -20 -20 -20 -20 -20 -20 -20 -20
-7 -3 6 21 15 -0 -20 -20 -20 -20 5 19 30 30 43 32 25 20 15 -15 -10 -20 -20 -20 -20 -13 -20 -17 -13 -20 -20 -20 -20 -20 -20 -20 -20 -20 -20 -20 -20 -20 -20 -20 -20 -20 -20
13 8 -4 -12 25 18 -20 -1 -20 -20 -20 7 24 28 36 32 32 31 13 9 -6 13 10 -20 -20 -20 -17 -4 8 -10 -20 -20 -20 -20 -20 -20 -20 -20 -20 -20 -20 -20 -20 -20 -20 -20 -20
-20 -20 -20 -20 -20 21 16 15 11 8 7 -17 9 26 34 42 33 36 21 11 -20 -20 -8 -4 -1 -4 -11 -20 -17 -20 -20 -20 -20 -20 -20 -20 -20 -1 -0 -20 -20 -20 -20 -20 -20 -20 -20
-1 -7 -20 -20 -20 -13 19 18 6 6 -10 -20 -17 14 28 32 39 38 38 7 -11 -20 -12 3 -8 -16 -12 -13 -11 -20 -20 -20 -20 -20 -20 -20 -20 -9 -15 -20 -20 -20 -20 -20 -20 -20 -20
-17 2 5 -14 -20 -20 -20 -13 -20 -20 -0 -20 -20 9 23 33 42 39 40 15 -2 16 16 15 6 -1 -20 -19 -20 -20 -20 -20 -18 -11 -20 -19 -20 -20 -20 -20 -20 -20 -20 -20 -20 -20 -20
9 -20 -20 -5 -20 6 -11 -16 -20 -20 -20 -20 -20 -0 33 34 41 38 30 32 16 15 27 11 -13 -20 -20 -20 -20 -20 -20 -10 8 2 5 -3 -18 -20 -20 -20 -20 -20 -20 -11 -20 -20 -20
6 5 -20 -9 6 -13 -15 -20 -10 -14 -20 -20 -20 6 27 39 35 33 35 33 31 42 31 5 -2 -20 -20 -20 -20 -20 -20 -20 -20 -12 -20 -18 -20 -20 -20 -5 -13 -20 -20 -5 -10 -20 -20
-20 -20 -20 -20 -20 -20 -20 -2 -18 -15 -20 -20 -20 18 26 35 36 36 32 39 41 34 32 -13 -15 -18 -20 -20 -20 -20 -20 -16 -13 -7 -8 -2 -4 -7 -6 -7 -20 -20 -19 26 1 -20 -20
-20 -5 -6 9 11 -2 -3 11 7 -19 -10 -20 8 12 25 30 32 34 34 39 35 38 26 -6 -20 -20 -20 -20 -20 -20 -20 -20 -20 -20 -20 -17 -17 -20 -16 -5 1 -4 7 8 -18 -20 -20
-17 -10 3 -20 -20 -19 -0 -15 -10 -6 -18 1 12 1 10 33 29 37 37 40 40 35 15 -20 -17 -20 -20 -20 -20 -20 -20 -20 -20 -20 -20 -20 -20 -20 -20 -17 11 19 -8 -5 17 17 -9
-4 14 6 8 14 -20 -14 -18 -20 4 8 3 15 14 -20 12 32 33 39 42 40 26 -17 -16 17 -14 -20 -20 -15 -13 -20 -20 -20 -20 -20 -15 1 -20 -20 -20 -20 -20 -19 13 28 10 -20
-1 4 4 6 -9 -5 -20 -7 7 6 17 16 8 20 -6 7 23 38 41 39 37 8 -2 -9 -4 -15 -20 -20 -20 -20 -20 -8 9 3 -1 12 18 2 -20 -20 -20 -20 -19 -12 -18 -20 -20
5 2 8 9 2 16 2 9 17 12 17 20 24 22 -19 19 29 40 40 40 30 1 -1 31 14 -5 -14 -20 -20 -20 -20 -20 -20 14 18 2 17 7 -20 -20 -20 -20 -20 -20 -20 -20 -20
13 2 5 3 16 9 6 -20 -10 12 16 20 24 8 10 19 28 35 25 38 35 -6 4 31 25 -2 17 6 -1 -19 -20 -19 -18 -20 -5 12 33 28 15 -20 -20 -20 -20 -20 -20 -20 -20
8 11 1 9 4 -20 -16 9 17 19 20 12 24 20 11 22 33 29 32 31 36 15 -14 14 19 -14 16 30 24 6 -14 -7 -19 -13 -11 5 -20 -20 -20 -5 9 9 7 -10 -1 -15 -20
16 9 0 -20 -20 -20 -20 -7 22 23 27 16 31 26 4 15 -5 32 35 33 25 27 2 11 23 11 4 27 25 13 -16 -20 -19 -17 5 6 -18 -20 5 11 3 -3 14 14 -1 0 -20
12 10 -20 -20 -20 -20 -11 9 23 31 38 38 24 29 24 -19 -20 23 16 16 28 18 8 -11 17 1 4 21 -8 -1 -20 -16 -20 -20 0 -20 -18 -20 -18 22 28 22 7 23 14 -5 -20
13 -8 1 -20 -20 8 19 23 33 29 34 42 22 9 23 -20 -14 4 33 22 15 14 -7 -20 -20 -20 -9 -13 -18 5 15 5 10 9 13 16 7 4 12 26 21 20 10 13 -5 -20 -20
8 -1 -20 -20 -10 16 30 30 24 19 28 31 23 -2 23 3 -18 -11 33 -19 -7 -8 -20 -20 -20 -20 8 28 25 25 23 27 26 21 21 19 19 19 22 24 23 14 -4 -20 -19 -20 -20
10 -20 -20 -20 -8 16 32 31 26 28 28 29 26 5 20 14 -20 -12 -5 -20 -20 4 -11 -20 -20 -20 11 15 13 26 30 29 32 40 34 28 16 24 25 21 15 0 -20 -20 -10 -20 -10
14 -20 -20 -20 -10 21 31 32 27 36 15 22 6 -5 21 11 15 -12 -15 -20 -18 -1 24 29 14 -3 15 31 28 26 23 20 21 21 33 31 29 19 19 11 0 -19 -9 -20 -10 3 -20
-20 -20 -20 -20 -20 19 31 32 28 37 26 43 31 21 22 16 -2 9 34 8 -13 -18 13 27 33 31 30 24 26 24 22 14 11 7 16 16 15 9 11 10 7 11 -5 -18 -13 -20 -20
-19 -20 -20 -20 7 12 28 31 26 25 39 29 32 21 -7 -5 -12 -14 21 24 -10 -17 16 29 19 29 30 11 15 22 16 11 9 9 6 1 3 11 15 14 5 3 -14 -4 -5 -20 -20
-20 -20 -20 -20 -1 11 30 30 30 23 27 27 25 25 -9 -12 18 5 -12 -20 -20 -2 -18 4 -11 14 13 5 18 12 2 10 10 14 22 13 12 14 10 8 9 8 1 -13 -20 -20 -20

GFSGBSN_prec_radar_201.txt.gz
Reflectivity
-19 -20 -15 -20 -20 -20 -20 -20 -0 -20 -20 -12 8 16 8 9 18 5 -2 -20 -17 -4 -20 -20 -20 -20 -20 -20 -20 -20 -20 -20 -20 -20 -20 -20 -20 -20 -20 -20 -20 -20 -20 -20 -20 -20 -20
2 -20 -20 -12 6 -20 -20 -20 -20 -4 -20 -20 -12 -3 -19 -20 12 20 7 -18 -20 -15 -20 -20 -20 -20 -20 -20 -16 -20 -20 -20 -20 -20 -20 -20 -20 -20 -20 -20 -20 -20 -20 -20 -20 -20 -20
-7 -17 -18 -12 -20 -20 -20 -20 -20 -20 -20 -20 -20 -20 -20 20 -12 21 18 8 -20 -20 -20 -20 -20 -20 -20 -19 -20 -20 -20 -20 -20 -20 -20 -20 -20 -20 -20 -20 -20 -20 -20 -20 -20 -20 -20
18 5 -4 1 -20 -20 -20 -20 -20 -20 -20 -20 -20 -20 -20 -17 20 21 7 20 17 -19 -20 -20 -15 -16 -20 -19 -13 -20 -20 -20 -20 -20 -20 -20 -20 -20 -20 -20 -20 -20 -20 -20 -15 -20 -20
-7 1 8 -12 -20 -20 -20 -20 -20 -20 -20 -20 -20 -20 -20 -20 -20 -0 5 17 29 -4 -7 -16 -3 -20 -16 -15 -20 -13 -20 -20 -20 -20 -20 -20 -20 -20 -20 -20 -20 -20 -20 -20 -20 -20 -20
16 19 15 13 -20 -20 -20 -20 -20 -20 -20 -20 -20 -20 -20 -20 -16 9 13 22 23 39 10 13 6 8 -20 -20 1 -15 -20 -20 -20 -20 -20 -20 -20 -20 -20 -20 -20 -11 -19 -20 -16 -20 -20
13 19 -20 7 -20 9 14 13 -20 -8 -5 -20 -20 -20 -20 -20 -20 13 16 26 34 47 31 5 -5 -13 -20 -20 -18 7 -15 -20 -20 -20 -20 -20 -20 -20 -20 -20 -20 -20 -20 -20 -20 -20 -20
11 6 -5 -17 -20 -20 -20 -4 -11 -20 16 -20 -20 -20 -20 -20 -20 8 19 26 5 40 26 20 -20 -20 -20 -20 -20 -13 10 -9 -20 -20 -20 -20 -20 -20 -20 -14 -19 -20 -19 -20 -16 -15 -19
9 3 21 15 -20 -20 8 9 8 -11 -12 -20 -20 -20 -20 -20 -18 -20 27 17 -4 17 40 21 -20 -20 -20 -4 -16 -20 -13 2 -12 -20 -20 -20 -20 -20 -20 -20 -20 -20 -20 -20 -20 -4 -2
19 -11 21 -20 -20 -20 -15 -16 -15 -20 -1 2 3 -20 -20 -20 -12 -20 8 -16 11 19 36 33 22 -0 -17 11 16 -16 -20 -11 -4 -19 -20 -20 -20 -20 -20 -20 -20 -20 -20 -18 -5 -18 -20
-10 -10 22 9 23 -17 -20 -20 5 -20 -20 -20 9 8 -20 -20 -9 4 -20 13 30 34 30 28 23 -20 -20 -18 0 7 -20 -12 -1 -17 -20 -20 -20 -20 -20 -20 -20 -20 -6 6 14 8 -20
27 22 10 8 1 12 18 -12 -20 -20 -20 3 -11 -20 -15 -20 5 -20 6 25 26 34 29 37 11 -16 -20 -20 -11 -20 -19 -20 -5 -7 -20 -20 -20 -20 -20 -20 -20 -20 -5 -17 -20 -20 -20
-20 -3 -15 10 22 21 -14 -20 5 -20 -20 -20 4 -20 -20 -3 -20 -20 20 25 35 26 33 31 3 -17 -20 -20 -20 -20 -20 -12 -19 -10 -20 -20 -20 -20 -20 -20 -20 -20 -20 -20 -20 -20 -20
-8 -7 21 10 -20 6 -17 -19 -20 -16 5 -9 -16 -5 -20 -17 -20 -20 10 39 27 32 33 14 -11 -12 -20 -20 -20 -1 -7 8 -3 -20 -20 -18 -20 -20 -20 -20 -20 -2 5 6 1 -9 -20
-15 9 -9 -8 -5 -7 15 14 14 -15 -18 -20 -15 -20 -12 -20 -20 -16 24 33 25 16 -5 -16 -14 2 -18 -20 -20 2 5 8 13 3 -20 -20 -20 -20 -20 -20 -12 5 3 4 -13 -4 -19
6 16 12 -13 5 -20 17 15 -17 -20 12 -20 -20 -12 -20 -20 -20 8 18 27 21 40 -12 -19 -11 -7 2 -20 -14 -20 10 8 -9 -18 -20 -20 -20 -20 -20 6 9 10 10 3 -9 -14 -20
-4 -4 -3 -3 -20 -7 3 -18 -11 -11 12 -20 18 4 -20 -20 10 13 -19 15 28 26 24 -7 5 1 -20 -20 -20 -20 -20 -20 -18 -20 -20 -20 -20 -20 -20 -4 15 8 -6 -17 -17 -20 -20
-14 -14 -1 -19 1 -0 3 -3 -17 -20 -20 27 22 14 -20 4 17 -3 -6 11 -13 13 38 28 17 -4 -20 -17 -6 -20 -20 -20 -20 -20 -20 -20 -20 -20 -20 -20 -3 13 13 3 0 -19 -20
2 -4 -18 -20 8 16 -16 -10 14 -20 3 -7 22 13 -20 27 15 -9 -20 -20 -20 -20 -1 37 9 -20 -15 -1 6 -20 -20 -20 -19 10 -20 3 12 5 -11 -11 -20 7 5 -14 -20 -20 -20
-2 21 17 19 15 19 11 22 -20 -13 25 18 29 18 16 5 8 7 -20 -20 -20 -20 -5 19 37 -4 11 20 -20 -20 -18 -20 -18 -8 -20 -3 18 12 -0 4 -16 -20 -20 -12 4 8 -2
15 15 20 21 5 7 -4 -20 -20 17 21 25 30 19 -18 -10 -20 -19 9 -20 -20 -12 12 15 32 34 18 19 3 -12 -4 -8 7 6 12 21 27 8 -16 -20 -20 -19 -20 -14 -3 -3 -19
13 17 13 12 14 17 -13 -9 -17 -5 20 29 27 11 27 -20 -20 -20 -20 -20 1 -20 -13 -2 11 -1 29 8 3 -14 -12 9 -11 16 24 32 32 10 -20 -20 -20 -20 -20 -20 -8 4 -1
12 17 16 15 17 -8 19 20 -18 4 24 36 28 22 36 14 -20 -2 -20 -20 -20 -17 -1 -20 -20 -7 13 -17 -20 -20 -20 5 16 12 16 17 30 32 24 -6 -18 9 -17 -20 5 19 18
14 15 15 -2 9 7 2 19 20 21 23 27 32 9 14 10 8 -19 -20 -20 -20 -20 -14 -13 -20 -20 -20 -17 -20 -6 18 20 21 24 22 24 26 33 24 23 19 30 -3 -17 -11 5 11
20 15 7 12 21 18 14 14 5 15 23 32 34 25 31 7 -20 -20 -20 -20 -20 -20 -17 -15 -20 -20 -20 -19 10 16 25 30 18 33 40 33 28 25 23 20 15 -10 -20 -20 -20 -20 4
-18 -19 21 16 -20 -20 -16 8 11 22 30 33 36 28 27 18 -7 -19 -20 -20 -20 -20 -16 -2 8 -1 16 36 26 20 18 19 12 11 11 8 37 30 26 22 9 -20 -20 -20 -20 -20 -20
16 4 -20 -20 -20 -13 10 22 26 31 31 32 34 28 29 19 17 -15 -20 -20 -20 -20 -12 -17 15 15 19 35 21 19 19 11 6 -18 -3 14 23 25 26 23 11 -20 -20 -20 -20 -20 -20
-14 -20 -20 -20 -12 -10 18 22 28 28 27 31 29 28 33 32 19 -17 -19 -20 -18 12 -3 18 14 1 13 29 21 18 28 24 18 3 -20 -17 6 10 12 -1 -18 -20 -20 -20 -20 -20 -20
-20 -20 -20 -17 9 14 10 22 26 22 21 16 20 23 33 34 28 3 8 6 -20 -20 -20 -20 18 33 33 22 18 23 17 11 -3 -19 -20 -20 2 5 4 -10 -20 -20 -20 -20 -20 2 1

GFSGBSN_prec_radar_204.txt.gz
Reflectivity
13 1 14 -20 -20 -20 -16 -16 -20 -3 -17 -20 -20 -13 -11 10 9 8 13 12 11 -19 -20 -16 -20 -20 -20 -20 -20 -20 -20 -20 -20 -20 -20 -20 -20 -20 -20 -20 -20 -20 -20 -20 -20 -20 -20
9 14 -1 17 3 7 10 -0 -20 -9 -20 -20 -20 -20 -20 -20 -14 2 9 19 12 11 -20 -20 -20 -17 -20 -20 -19 -20 -20 -20 -20 -20 -20 -20 -20 -20 -20 -20 -20 -20 -20 -20 -20 -20 -20
9 13 3 12 10 -12 -1 7 -20 -20 -20 -20 -20 -20 -20 -20 -20 -4 18 -0 14 16 10 -20 -20 -20 -20 -20 -20 -20 -20 -20 -20 -20 -20 -20 -20 -20 -20 -20 -20 -20 -20 -20 -20 -20 -20
-20 12 3 4 -2 -20 -18 6 -16 -20 -20 -20 -20 -20 -20 -20 -20 -20 -1 5 1 6 31 -16 -19 -10 -18 -20 -18 -20 -20 -20 -20 -20 -20 -20 -20 -20 -20 -20 -20 -20 -20 -20 -19 -20 -20
-20 3 16 -0 5 -17 -11 -20 -20 -11 -20 3 -20 -20 -20 -20 -10 -20 -20 -11 -10 22 35 33 9 -12 -20 -20 -20 -8 -13 -20 -20 -20 -20 -20 -20 -20 -20 -20 -20 -20 -20 -20 -14 -18 -18
-20 -15 13 12 21 8 -18 -20 -20 -20 -20 -3 -20 -20 -20 -15 -20 -20 -20 -15 -10 5 16 32 30 10 -20 -20 -20 -16 5 -12 -14 -20 -20 -20 -20 -20 -20 -20 -20 -20 -20 -20 -20 -20 -20
-20 6 13 -8 -6 -20 -20 20 23 -20 -20 -15 -20 -20 -20 -20 -20 -20 1 8 14 4 30 26 1 -20 -20 -20 -20 -20 -17 3 -8 -12 -19 -20 -20 -20 -20 -20 -20 -20 -20 -20 -20 -20 -20
19 -7 18 19 -9 -20 11 0 3 3 -20 -20 3 -20 -20 -20 -20 -20 -20 17 11 -8 19 11 10 6 -20 -20 -20 -20 -11 9 9 1 -13 -17 -20 -20 -20 -20 -20 -20 -20 -20 -20 -20 -20
-0 -16 -18 4 21 15 13 -18 6 12 -4 -5 -18 -20 -20 -20 -20 -20 -20 -16 12 14 18 7 -1 -18 -20 -20 -20 -20 -20 -8 13 7 5 -3 -16 -19 -13 -20 -20 -20 -20 -20 -20 -20 -19
13 -10 -15 -2 25 24 -13 -17 -4 -20 -20 -16 -3 -20 -20 -20 -20 -20 -20 -20 -10 4 28 20 3 -18 -6 -15 13 -20 -20 -20 3 13 -3 -12 -15 -20 -20 -20 -20 -20 -20 -20 -20 -20 -20
18 -16 -9 -9 26 -17 19 -11 -20 -20 -20 -20 14 -18 11 -18 -20 -20 -20 -20 -7 36 25 0 -5 -20 -20 -20 -6 -20 -20 -20 -20 12 4 -20 -20 -20 -20 -20 -14 -20 -18 -17 -20 -20 -20
9 -8 -5 -10 21 22 24 -20 8 3 -20 1 -14 3 15 -20 -20 -20 -20 -20 1 34 20 5 -18 -19 -20 -20 -20 -20 4 -8 -20 -0 14 -8 -20 -20 -20 -20 -20 -20 -20 -20 -20 -20 -20
-11 -20 -10 2 3 24 21 18 23 -20 -20 -20 -20 -11 21 -3 -20 10 -20 -20 12 23 31 16 -1 -15 -20 -20 -20 -20 -20 11 0 10 0 15 -13 -20 -20 -20 -20 -20 -20 -20 -20 -20 -20
-9 -11 -15 12 23 21 23 -11 -20 14 -18 19 16 -2 7 -20 -13 -2 -20 6 25 -15 -4 30 -13 -12 -18 -20 -20 -20 -20 18 14 -9 -20 -15 -12 -20 -20 -20 -20 -20 -20 -20 -20 -20 -20
-14 -11 -6 -8 15 -8 14 -13 -14 -20 17 -20 21 -20 -19 -20 17 4 7 22 15 5 -19 16 6 18 5 -20 -20 -20 -20 25 12 -15 -20 -20 -20 -20 -20 -20 -20 -20 -20 -20 -19 -18 -20
-9 -9 -16 -20 -16 -18 -20 -4 -17 8 16 26 12 -20 -20 -20 -20 -14 15 4 12 -16 17 10 24 13 6 -20 -20 -20 -20 -5 10 -20 -20 -20 -20 -20 -20 -17 -20 -20 -20 -20 -20 -20 -20
19 -19 5 8 -20 -20 -6 -17 -4 -14 -8 18 3 15 -17 -20 9 9 2 -20 -20 -20 -15 25 13 29 19 -20 -20 -20 -20 -20 -19 -20 -20 -16 9 -14 -7 5 -5 -15 -3 -20 -20 -20 -20
-4 16 16 13 -19 -16 -18 -20 -14 -13 -19 27 20 17 -20 -20 17 3 -7 -20 -20 -20 2 29 30 27 27 28 1 -20 -20 -20 -20 -20 -20 -20 -3 -1 -8 -19 -5 5 -8 -20 -6 -3 -1
20 13 10 13 9 8 10 15 8 10 -2 17 32 14 9 -8 12 -20 -20 -20 -20 -20 -18 -19 19 22 29 20 16 -14 -20 -20 -20 -20 15 -7 17 13 3 8 9 2 -18 -20 -20 -20 -20
12 15 16 20 19 16 12 19 -12 -20 14 23 28 13 -1 18 -20 -13 -5 -17 -20 -20 -20 -8 -3 6 36 38 13 -16 -20 -20 -10 -8 -0 10 19 25 3 6 4 -20 -20 -20 -17 -15 -18
17 11 6 17 18 17 -2 -10 -20 -16 28 24 25 10 -14 1 -7 -20 -4 -13 -20 -4 -19 4 8 15 29 22 37 -12 -20 -20 12 -15 8 27 33 27 13 -20 -5 -6 -9 -4 4 -7 -3
12 20 15 9 15 -9 -20 -20 -19 -18 9 24 24 2 11 1 -20 -20 -20 -10 -20 -20 -2 7 1 19 2 11 23 35 13 -17 -20 -11 11 12 32 21 10 -20 -11 -6 -20 -20 -20 -20 -20
-3 12 7 5 19 -3 -5 14 -17 -20 28 14 8 -15 6 13 2 -18 -20 -20 -20 -20 -20 -20 -9 -2 18 27 -9 2 29 19 -20 8 5 3 24 36 32 -8 11 19 2 -20 -20 -20 -20
1 -16 -13 2 -2 -20 -18 -16 -18 -20 25 3 2 5 23 19 -4 -18 -20 -20 -20 -20 -20 -20 -19 11 2 26 28 27 34 35 -7 -3 12 33 19 36 29 20 23 34 -2 -17 -8 2 3
3 -20 16 13 23 10 18 -5 24 8 24 27 19 8 26 16 -16 -20 -20 -20 -20 -20 -20 -20 -20 -20 9 -5 19 21 27 44 38 38 27 -3 -3 27 17 15 32 14 -18 1 9 -3 6
-20 -19 21 15 -20 -20 -20 -20 -20 -20 22 28 21 13 28 21 8 -20 -20 -20 -20 -20 -20 -20 -20 -18 -19 33 17 15 28 28 -6 -20 -20 -20 -10 25 27 17 27 -1 -17 -11 10 26 -13
4 -20 -20 -7 16 13 15 11 8 9 23 30 35 26 34 24 19 -11 -20 -20 -20 -20 -20 -20 -20 -20 -20 7 31 11 26 14 19 -16 -12 7 11 6 17 27 15 -20 -20 -12 11 6 -3
0 6 11 -20 -20 13 -1 0 10 23 25 28 31 17 33 34 25 -3 -1 -2 -20 -20 -20 -20 -5 -20 10 9 24 -5 16 18 -20 -20 -20 -17 -14 -1 17 18 12 -18 -20 -15 -12 3 1
-20 -20 -20 -20 -20 -19 -17 -20 8 18 26 33 33 24 37 36 33 10 5 15 11 -8 -20 7 9 -20 -2 36 9 -20 -20 -1 12 -18 -20 -20 -20 -18 6 -2 -15 -20 4 5 -20 -20 -20

GFSGBSN_prec_radar_210.txt.gz
Reflectivity
12 -20 -20 -20 -20 11 -14 12 -20 -20 -5 -20 -20 -20 -20 -20 -20 -20 -20 -20 -20 12 -2 1 -2 -20 -20 -20 -20 -16 -20 -20 -20 -20 -20 -20 -20 -20 -20 -20 -20 -20 -20 -20 -20 -20 -20
18 -20 -20 -20 -20 10 20 -14 20 -20 -20 -20 -20 -20 -20 -20 -20 -20 -20 -20 -20 -20 -19 14 15 -14 -20 -20 -20 -15 -20 -20 -20 -20 -20 -20 -20 -20 -20 -20 -20 -20 -20 -20 -20 -20 -20
-19 -20 -20 -20 -20 -20 -20 -19 20 18 6 -20 -20 -19 -6 -20 -20 -20 -20 -20 -20 -20 -5 -20 19 4 -13 -20 -20 -20 -20 4 -10 -20 -20 -20 -20 -20 -20 -20 -20 -20 -20 -20 -20 -20 -20
-20 -20 -20 -20 -20 -20 -20 -20 -16 19 -7 -20 -20 -20 -20 -20 -20 -20 -20 -20 -20 -20 -20 17 28 22 -5 -20 -20 -20 -20 -20 -20 4 -16 -20 -20 -20 -20 -20 -20 -20 -20 -20 -20 -20 -20
-20 -20 -20 -20 4 -20 -11 -20 3 17 15 1 -20 -1 -16 -20 -20 -20 -20 -20 -20 -20 -20 -19 22 27 14 -20 -20 -20 -20 -20 -20 -20 -4 -0 -20 -20 -20 -20 -20 -20 -20 -20 -20 -20 -20
-4 -14 -20 -12 -14 -10 -20 -1 -20 21 20 20 -14 -20 -20 -20 -20 -20 -20 -20 -20 4 -20 14 -2 3 11 -20 -20 -20 -20 -20 -20 -20 -20 -9 -14 -20 -20 -20 -20 -20 -20 -20 -20 -20 -20
-20 -20 -20 -20 -2 1 18 -20 -17 22 21 18 17 6 -20 -20 -20 -20 -20 -20 -20 -20 1 -20 -10 -13 -20 -20 -20 -20 -20 -20 -20 -20 -20 -20 -19 -11 -20 -20 -20 -20 -20 -20 -20 -20 -20
-20 -19 -2 -20 0 -12 -11 -13 21 21 20 15 20 -11 -20 -18 -20 -20 -20 -20 -11 -2 3 -20 -20 -6 -20 -20 -20 -20 -20 -20 -20 -20 -20 -20 -20 -20 -20 -3 -20 -20 -20 -20 -20 -20 -20
5 -3 -9 -20 -9 12 5 -14 22 22 19 5 -4 0 1 -4 -20 -20 -20 -20 -20 -20 -4 -20 -20 -20 1 -20 -7 -5 -20 -20 -20 -20 -20 -20 -20 -16 -19 -20 -20 -20 -20 -20 -20 -20 -20
-3 -20 -20 -18 -6 22 -20 18 4 19 25 19 23 12 12 -20 -20 -20 -20 -17 -20 -0 11 -18 -20 -20 -20 7 7 -20 -20 -20 -20 -20 -20 -20 -20 -20 -20 -20 -20 -20 -20 -20 -20 -20 -20
-20 -20 -20 -20 17 -20 -20 -19 -20 27 19 18 14 10 -20 -20 -4 -6 -10 -20 -20 8 -4 -20 -20 -20 -20 3 -20 -20 -20 -20 -20 -20 -20 -20 -20 -20 -20 -20 -20 -20 -19 -20 -20 -20 -20
-11 -11 -20 -17 -20 -20 -20 -20 -20 -20 -2 19 2 -20 -20 2 4 -16 -20 -20 -20 22 -6 -20 -20 -2 13 2 -20 -20 -20 -20 -20 -16 -20 -20 -20 -20 -20 -20 -20 -20 -20 -17 -7 -20 -6
12 3 11 -20 -20 19 -20 -20 -20 -20 -6 17 16 10 -9 6 1 -19 -18 5 12 19 -20 10 -1 2 6 11 5 -11 12 -13 -3 5 21 -20 -20 -20 -20 -20 -20 -20 -18 -10 4 7 -20
2 6 21 -3 25 12 -17 -20 -20 -20 -20 8 17 -1 -6 18 6 19 -11 19 17 -20 -17 -20 16 10 11 3 4 9 -10 12 12 -6 -20 -20 -20 -20 -20 -20 -20 -20 -20 -20 -19 -20 -20
-10 0 -3 18 -8 -20 25 -19 -20 19 20 19 -11 17 22 -8 -20 -10 19 21 16 -5 -20 -20 -3 4 23 14 8 10 7 -15 5 -14 -1 -20 -20 -20 -20 -20 -20 -20 -20 -20 -18 -20 1
4 -9 -13 -12 -3 -15 -20 -20 -17 20 -6 18 19 19 8 -9 14 22 19 13 -20 -20 -20 2 18 12 -0 20 22 22 8 3 -7 -20 -20 -20 -20 -20 -20 -20 -20 -20 -20 8 18 15 -11
-20 -5 -9 -20 18 -20 -20 -20 -3 23 7 15 18 16 -1 -20 -1 21 10 -4 -20 -20 -20 -2 -20 18 19 23 36 22 9 -20 -20 -20 -20 -20 -20 -20 -20 -20 -20 -20 -20 1 1 1 -20
13 8 -5 -3 -20 -20 -20 -20 -20 -20 27 13 20 18 -7 3 17 13 11 -20 -20 -20 -20 -20 -20 -13 -0 11 13 20 40 10 -20 -20 -19 -20 9 6 -20 -20 -20 -20 -20 -20 18 14 -18
15 -1 -20 16 17 -1 -16 -14 -6 -0 19 24 17 20 -8 22 14 13 11 -16 -1 -20 -20 -20 -20 -20 3 13 21 5 9 30 26 30 17 -18 21 12 10 -13 9 1 -20 -20 15 14 -20
2 -9 -15 -9 -3 12 5 12 -20 20 23 24 19 14 15 22 13 17 18 12 7 -16 -20 -20 -20 -20 -20 -17 8 15 -20 -20 4 31 27 28 28 17 -8 -16 -20 19 -20 -20 13 21 -20
-20 -17 -18 15 7 -18 2 13 -20 -6 24 22 20 9 17 11 11 8 17 16 15 9 -11 -20 5 3 -2 0 -17 14 -1 -19 12 26 23 25 36 29 -19 -20 -20 8 -20 -20 16 -20 5
-5 1 -14 12 -20 -20 -20 7 19 23 25 25 -5 13 15 13 16 20 16 13 2 -14 8 5 18 13 15 10 -20 9 8 7 6 19 11 19 29 20 16 -20 -20 -10 5 -14 -20 -20 11
-20 -20 -10 6 -10 -20 -20 -20 -9 -20 25 20 2 3 20 -17 15 18 -2 2 -11 -7 -8 -20 -20 13 7 -20 -8 -9 12 16 4 -10 20 27 25 26 20 -20 -16 21 -9 -20 -20 -20 -20
-20 -20 -10 2 15 19 21 6 -20 -3 23 22 5 16 24 14 19 10 12 14 17 12 15 -19 13 14 -13 -5 -14 -20 -20 -18 -20 -20 17 27 16 20 21 6 14 13 -20 -20 -13 -20 -20
-20 -20 -20 -20 -15 -17 -16 -13 15 19 10 23 22 3 16 9 -5 -3 -11 -16 -19 -5 8 4 -14 7 15 23 17 18 2 3 -19 -20 8 17 23 24 13 14 8 -20 -20 -20 -9 -20 -20
-20 -20 -20 -20 -20 -9 -20 13 14 15 21 22 20 13 16 16 -1 -20 -3 0 7 11 10 -20 6 15 25 31 16 12 8 5 -11 -20 5 11 17 18 4 9 15 -20 -20 -19 19 16 0
-20 -20 -20 -20 -20 -20 -7 -0 5 0 -5 22 21 2 24 24 12 -5 9 6 7 9 13 8 9 9 14 23 18 17 2 4 11 -20 15 0 -1 7 -8 -12 13 -20 -20 -5 18 23 -10
-20 -20 -20 -20 -20 -20 -20 -20 -20 -20 -20 19 12 10 31 34 18 -4 -12 10 8 24 21 -2 18 28 22 22 18 14 6 -18 -20 -20 -20 -19 -8 15 13 16 3 26 -20 -12 -14 4 -8
-20 -20 -20 -20 -20 -20 -20 -20 -20 -2 1 24 29 10 34 37 31 5 -14 -20 12 10 20 27 28 15 3 7 10 12 6 15 -4 21 27 18 36 32 34 37 8 13 16 -12 15 25 26